Weather History for MRLB - May, 2014

Change the Weather History Date:

Sunday, May 11, 2014

  Actual Average Record
Temperature  
Mean Temperature 82 °F -  
Max Temperature 92 °F 89 °F 97 °F (2015)
Min Temperature 72 °F 76 °F 70 °F (2012)
Cooling Degree Days 17    
Growing Degree Days 32 (Base 50)    
Moisture  
Dew Point 71 °F    
Average Humidity 65    
Maximum Humidity 96    
Minimum Humidity 45    
Precipitation  
Precipitation 0.00 in - - ()
Sea Level Pressure  
Sea Level Pressure 29.82 in    
Wind  
Wind Speed 5 mph ()    
Max Wind Speed 10 mph    
Max Gust Speed -    
Visibility 8.0 miles    
Events      
Averages and records for this station are not official NWS values.
T = Trace of Precipitation, MM = Missing Value Source: Averaged Metar Reports

Daily Weather History Graph

Daily Weather History Graph

Search for Another Location

Airport or City:

Trip Planner

Search our weather history database for the weather conditions in past years. The results will help you decide how hot, cold, wet, or windy it might be!

Date:

Astronomy

May. 11, 2014 Rise Set
Actual Time 5:21 AM CST 5:56 PM CST
Civil Twilight 4:58 AM CST 6:18 PM CST
Nautical Twilight 4:32 AM CST 6:44 PM CST
Astronomical Twilight 4:06 AM CST 7:10 PM CST
Moon 3:22 PM CST (5/11) 2:48 AM CST (5/11)
Length of Visible Light 13h 19m
Length of Day
12h 35m
Waxing Gibbous, 89% of the Moon is Illuminated
May 11
Waxing Gibbous
May 14
Full
May 21
Last Quarter
May 28
New
Jun 5
First Quarter

Hourly Weather History & Observations

Time (CST) Temp. Heat Index Dew Point Humidity Pressure Visibility Wind Dir Wind Speed Gust Speed Precip Events Conditions
6:00 AM 73 °F - 72 °F 96% 29.88 in 12 mi NNE 2.3 mph - -   Overcast
6:00 AM 73.4 °F - 71.6 °F 94% 29.84 in - NNE 2.3 mph - N/A   Clear
7:00 AM 77.0 °F - 71.6 °F 83% 29.86 in - Calm Calm - N/A   Clear
8:00 AM 80.6 °F 84.6 °F 71.6 °F 74% 29.87 in - Calm Calm - N/A   Clear
9:00 AM 86 °F - 69 °F 48% 29.91 in 12 mi East 9.2 mph - -   Overcast
9:00 AM 86.0 °F 90.4 °F 69.8 °F 58% 29.88 in - East 9.2 mph - N/A   Clear
10:00 AM 87.8 °F 91.4 °F 68.0 °F 52% 29.88 in 6.2 mi East 8.1 mph - N/A   Overcast
11:00 AM 87.8 °F 92.6 °F 69.8 °F 55% 29.86 in 6.2 mi South 9.2 mph - N/A   Mostly Cloudy
12:00 PM 88 °F - 70 °F 46% 29.87 in 12 mi South 9.2 mph - -   Overcast
12:00 PM 87.8 °F 92.6 °F 69.8 °F 55% 29.84 in 6.2 mi South 9.2 mph - N/A   Scattered Clouds
1:00 PM 89.6 °F 93.4 °F 68.0 °F 49% 29.81 in 6.2 mi WSW 5.8 mph - N/A   Scattered Clouds
2:00 PM 89.6 °F 96.2 °F 71.6 °F 55% 29.77 in 6.2 mi West 9.2 mph - N/A   Mostly Cloudy
3:00 PM 90 °F - 71 °F 45% 29.74 in 12 mi WNW 10.4 mph - -   Overcast
3:00 PM 89.6 °F 96.2 °F 71.6 °F 55% 29.74 in 6.2 mi WNW 10.4 mph - N/A   Mostly Cloudy
4:00 PM 87.8 °F 93.8 °F 71.6 °F 58% 29.74 in 6.2 mi West 10.4 mph - N/A   Mostly Cloudy
5:00 PM 84.2 °F 89.6 °F 71.6 °F 66% 29.74 in 6.2 mi West 9.2 mph - N/A   Mostly Cloudy
6:00 PM 83 °F - 73 °F 66% 29.77 in 12 mi NW 3.5 mph - -   Overcast
6:00 PM 82.4 °F 88.2 °F 73.4 °F 74% 29.77 in 6.2 mi NW 3.5 mph - N/A   Mostly Cloudy
7:00 PM 82.4 °F 89.5 °F 75.2 °F 79% 29.79 in 6.2 mi South 2.3 mph - N/A   Mostly Cloudy
8:00 PM 80.6 °F 86.2 °F 75.2 °F 84% 29.82 in 6.2 mi South 3.5 mph - N/A   Mostly Cloudy